This is the latest recevied weather packets stored in our database for station/object W0WC. If no packets are shown the sender has not sent any weather packets the latest 10 day(s).
| Time | Temp. | Humidity | Pressure | Rain* | Wind** | Luminosity | Snow |
|---|---|---|---|---|---|---|---|
| 1788469719 | 37.78° C | 34% | 1012.7 hPa | 0 mm | - | 493 W/m² | - |
| 1788469419 | 37.78° C | 34% | 1012.8 hPa | 0 mm | - | 504 W/m² | - |
| 1788469118 | 38.33° C | 33% | 1012.8 hPa | 0 mm | - | 511 W/m² | - |
| 1788468818 | 38.33° C | 33% | 1013 hPa | 0 mm | - | 527 W/m² | - |
| 1788468514 | 38.33° C | 34% | 1012.6 hPa | 0 mm | - | 536 W/m² | - |
| 1788468210 | 38.33° C | 33% | 1013.1 hPa | 0 mm | - | 549 W/m² | - |
| 1788467905 | 37.78° C | 34% | 1013.1 hPa | 0 mm | - | 563 W/m² | - |
| 1788467601 | 37.78° C | 33% | 1013.2 hPa | 0 mm | - | 574 W/m² | - |
| 1788467300 | 37.22° C | 35% | 1013.1 hPa | 0 mm | - | 586 W/m² | - |
| 1788466997 | 37.78° C | 35% | 1013.2 hPa | 0 mm | - | 601 W/m² | - |
| 1788466695 | 38.33° C | 33% | 1013.2 hPa | 0 mm | - | 604 W/m² | - |
| 1788466391 | 37.78° C | 35% | 1013.2 hPa | 0 mm | - | 618 W/m² | - |
| 1788466089 | 37.78° C | 34% | 1013.4 hPa | 0 mm | - | 626 W/m² | - |
| 1788465785 | 37.22° C | 36% | 1013.3 hPa | 0 mm | - | 636 W/m² | - |
| 1788465480 | 37.22° C | 36% | 1013.3 hPa | 0 mm | - | 639 W/m² | - |
| 1788465176 | 37.22° C | 36% | 1013.5 hPa | 0 mm | - | 648 W/m² | - |
| 1788464871 | 37.22° C | 36% | 1013.4 hPa | 0 mm | - | 658 W/m² | - |
| 1788464567 | 36.67° C | 35% | 1013.5 hPa | 0 mm | - | 663 W/m² | - |
| 1788464263 | 37.22° C | 37% | 1013.5 hPa | 0 mm | - | 671 W/m² | - |
| 1788463958 | 37.22° C | 36% | 1013.8 hPa | 0 mm | - | 678 W/m² | - |
| 1788463654 | 36.67° C | 38% | 1013.8 hPa | 0 mm | - | 682 W/m² | - |
| 1788463349 | 36.67° C | 37% | 1013.9 hPa | 0 mm | - | 691 W/m² | - |
| 1788463046 | 37.22° C | 37% | 1013.9 hPa | 0 mm | - | 696 W/m² | - |
| 1788462741 | 36.67° C | 38% | 1014 hPa | 0 mm | - | 702 W/m² | - |
| 1788462435 | 36.11° C | 38% | 1014.1 hPa | 0 mm | - | 706 W/m² | - |
* Rain latest hour (hover to see other rain measurements)
** Current wind speed in m/s (hover to see current wind gust speed)